sat.trackr.live / text

‹ back to catalog

STARLINK-37240

NORAD 69031 · 2026-101G

PAYLOAD ACTIVE UNKNOWN

§ Identity

Operator
Country
US
Launch date
2026-05-06
Launch site
AFWTR
Launch vehicle
Mass (kg)
RCS (m²)

Purposes: comms

External: N2YO · Heavens-Above · Gunter

§ Orbital elements

Epoch: 2026-09-19T00:20:55.193280Z

Period
93.91 min
Inclination
97.2857°
Eccentricity
0.0001321
Mean motion
15.33464440 rev/d
Perigee alt
464.6 km
Apogee alt
466.4 km
Semi-major
6,843.6 km
B*
3.5615e-4
RAAN
115.5581°
Arg perigee
68.2009°
Mean anomaly
291.9374°
Rev number
2,095

§ Raw data

STARLINK-372401 69031U 26101G   26262.01452770  .00011447  00000+0  35615-3 0  99922 69031  97.2857 115.5581 0001321  68.2009 291.9374 15.33464440 20952

JSON: /api/v1/satellites/69031 · /tle

For live sub-satellite position, see the globe view (requires WebGL).

§ Visibility from observer

Set your observer location to see the next 7 days of passes ≥ 10°. The values pass through the URL so the page stays shareable.

No JS? Fill the form by hand. The geolocation button needs JavaScript.